Hourly Weather Roundup
Issued by NWS Central Illinois

Home | Current Version | Previous Version | Text Only | Print | Product List | Glossary On
Versions: 1 2 3 4 5 6 7 8 9 10 11 12 13 14 15 16 17 18 19 20 21 22 23 24 25 26 27 28 29 30 31 32 33 34 35 36 37 38 39 40 41 42 43 44 45 46 47 48 49 50
000
NZUS43 KILX 270110
HWRILX

Area Weather Roundup
National Weather Service Lincoln IL
800 PM CDT SAT MAY 26 2018

NOTE:  "FAIR" indicates few or no clouds below 12,000 feet, with
       no sigificant weather and/or obstructions to visibility.


CITY           SKY/WX    TMP DP  RH WIND       PRES   REMARKS
Bloomington    NOT AVBL
Champaign      FAIR      82  67  60 CALM      29.79R HX  84
Danville       CLOUDY    83  67  58 CALM      29.76R HX  85
Decatur        FAIR      83  63  50 SW6       29.79R HX  84
Effingham      FAIR      82  69  63 SE3       29.81R HX  86
Flora          FAIR      85  69  58 SW6       29.81R HX  89
Galesburg      FAIR      82  71  69 S5        29.78R HX  86
Jacksonville   CLOUDY    82  71  68 SW6       29.77S HX  86
Lacon          FAIR      81  68  64 CALM      29.75R HX  83
Lawrenceville  MOCLDY    87  64  46 SW5       29.79R HX  88
Litchfield     CLEAR     82  68  62 S5        29.80R HX  85
$$


CITY           SKY/WX    TMP DP  RH WIND       PRES   REMARKS
Lincoln        FAIR      83  68  60 CALM      29.78R HX  86
Macomb         CLOUDY    74  65  75 CALM      29.78S
Mattoon        FAIR      82  69  64 W5        29.78R HX  85
Mt Carmel AP   FAIR      84  64  51 SW5       29.79R HX  86
Olney-Noble AP FAIR      84  63  49 W5        29.80R HX  84
Paris AP       FAIR      83  65  53 CALM      29.79R HX  85
Peoria         FAIR      82  72  71 S3        29.76R HX  87
Pontiac        FAIR      83  67  57 SW6       29.78R HX  86
Rantoul        FAIR      81  72  73 SW5       29.78R HX  85
Robinson       FAIR      82  68  63 W5        29.80R HX  84
Springfield    FAIR      81  71  71 S6        29.77S HX  85
Taylorville    FAIR      82  70  67 S5        29.79R HX  85
$$

...REGIONAL REPORTS...


CITY           SKY/WX    TMP DP  RH WIND       PRES   REMARKS
Chicago O`Hare FAIR      83  59  44 E9        29.75R HX  83
Kankakee       FAIR      83  60  44 CALM      29.77S HX  83
La Salle       FAIR      86  67  53 SW8       29.76R HX  89
Moline         FAIR      82  73  74 CALM      29.74R HX  87
Mount Sterling CLOUDY    74  70  87 NW8       29.78S
Mount Vernon   FAIR      81  70  69 CALM      29.81R HX  84
Pittsfield     TSTM      77  71  82 W5        29.80S
Quincy         CLOUDY    76  71  85 S8        29.79R
Rockford       FAIR      84  60  44 SW3       29.76R HX  84
$$


CITY           SKY/WX    TMP DP  RH WIND       PRES   REMARKS
Burlington     CLOUDY    81  69  67 S8        29.76R HX  84
Cedar Rapids   FAIR      85  70  60 S3        29.74R HX  89
Des Moines     PTCLDY    89  64  43 S7        29.72R HX  90
Kirksville     CLOUDY    85  67  54 SW6       29.79R HX  87
Ottumwa        CLEAR     84  71  65 SE7       29.74S HX  89
St Louis       PTCLDY    88  70  55 W8        29.80R HX  93
$$


CITY           SKY/WX    TMP DP  RH WIND       PRES   REMARKS
Terre Haute    FAIR      83  65  54 SW5       29.78R HX  85
Evansville     FAIR      80  69  69 SW7       29.81R HX  83
Indianapolis   LGT RAIN  76  66  71 NE5       29.80R
Lafayette      FAIR      77  68  73 CALM      29.77R
Madison        FAIR      83  64  52 CALM      29.74R HX  84
Milwaukee      FAIR      79  62  56 S7        29.75R HX  80
$$





USA.gov is the U.S. government's official web portal to all federal, state and local government web resources and services.